N042SB LIMF-LIMJ

Flight info

Callsign N042SB
Flight time 0h 43m
Altitude 7000
Route LAGEN1W LAGEN L50 IXITO IXITO1N
Aircraft DA42/L-V/N

Departure

Time 2026-04-27 18:07
Airport Turin Airport (LIMF)

Arrival

Time 2026-04-27 18:50
Airport Genoa Cristoforo Colombo Airport (LIMJ)
Time Latitude Longitude Altitude Speed Heading
2026-04-27 17:42 45.19669 7.64358 980 ft 0 kts
2026-04-27 18:02 45.19677 7.64365 980 ft 5 kts 59°
2026-04-27 18:03 45.19690 7.64422 980 ft 6 kts 92°
2026-04-27 18:03 45.19689 7.64483 980 ft 6 kts 92°
2026-04-27 18:03 45.19701 7.64555 980 ft 8 kts 77°
2026-04-27 18:03 45.19715 7.64637 980 ft 9 kts 77°
2026-04-27 18:04 45.19696 7.64695 982 ft 9 kts 184°
2026-04-27 18:04 45.19622 7.64691 980 ft 13 kts 184°
2026-04-27 18:04 45.19533 7.64711 984 ft 12 kts 124°
2026-04-27 18:04 45.19524 7.64825 979 ft 12 kts 94°
2026-04-27 18:05 45.19543 7.64925 979 ft 11 kts 24°
2026-04-27 18:05 45.19595 7.64933 976 ft 0 kts
2026-04-27 18:05 45.19614 7.64934 976 ft 9 kts
2026-04-27 18:06 45.19848 7.64949 978 ft 64 kts
2026-04-27 18:06 45.20425 7.64977 1056 ft 93 kts
2026-04-27 18:06 45.21079 7.65012 1278 ft 100 kts
2026-04-27 18:06 45.21819 7.65053 1453 ft 115 kts
2026-04-27 18:07 45.22612 7.65108 1766 ft 116 kts
2026-04-27 18:07 45.23431 7.65180 2058 ft 118 kts
2026-04-27 18:07 45.24261 7.65217 2360 ft 120 kts
2026-04-27 18:07 45.25096 7.65227 2678 ft 119 kts 360°
2026-04-27 18:08 45.25929 7.65218 2998 ft 120 kts 359°
2026-04-27 18:08 45.26753 7.65198 3314 ft 121 kts 359°
2026-04-27 18:08 45.27594 7.65230 3618 ft 123 kts 12°
2026-04-27 18:08 45.28329 7.65844 3886 ft 125 kts 52°
2026-04-27 18:09 45.28537 7.66989 4200 ft 123 kts 101°
2026-04-27 18:09 45.28255 7.68093 4562 ft 120 kts 118°
2026-04-27 18:09 45.27842 7.69178 4800 ft 127 kts 124°
2026-04-27 18:09 45.27336 7.70139 5163 ft 121 kts 133°
2026-04-27 18:10 45.26753 7.71033 5416 ft 127 kts 136°
2026-04-27 18:10 45.26142 7.71924 5747 ft 124 kts 136°
2026-04-27 18:10 45.25613 7.72716 6035 ft 125 kts 135°
2026-04-27 18:10 45.25010 7.73638 6330 ft 127 kts 133°
2026-04-27 18:11 45.24488 7.74632 6672 ft 126 kts 122°
2026-04-27 18:11 45.23913 7.75590 6921 ft 129 kts 144°
2026-04-27 18:11 45.23133 7.76379 6978 ft 148 kts 147°
2026-04-27 18:11 45.22245 7.77235 6980 ft 159 kts 147°
2026-04-27 18:12 45.21316 7.78120 6976 ft 161 kts 147°
2026-04-27 18:12 45.20393 7.78995 6980 ft 162 kts 147°
2026-04-27 18:12 45.19452 7.79885 6978 ft 163 kts 147°
2026-04-27 18:12 45.18512 7.80775 6979 ft 163 kts 147°
2026-04-27 18:13 45.17568 7.81665 6976 ft 163 kts 147°
2026-04-27 18:13 45.16625 7.82552 6974 ft 163 kts 147°
2026-04-27 18:13 45.15697 7.83425 6975 ft 163 kts 147°
2026-04-27 18:13 45.14751 7.84315 6974 ft 163 kts 147°
2026-04-27 18:14 45.13802 7.85204 6974 ft 163 kts 147°
2026-04-27 18:14 45.12852 7.86091 6975 ft 164 kts 147°
2026-04-27 18:14 45.11907 7.86971 6992 ft 162 kts 147°
2026-04-27 18:14 45.10970 7.87844 7040 ft 160 kts 147°
2026-04-27 18:15 45.10043 7.88706 7087 ft 159 kts 147°
2026-04-27 18:15 45.09122 7.89563 7120 ft 158 kts 147°
2026-04-27 18:15 45.08226 7.90395 7168 ft 158 kts 147°
2026-04-27 18:15 45.07309 7.91243 7213 ft 157 kts 147°
2026-04-27 18:16 45.06394 7.92090 7264 ft 157 kts 147°
2026-04-27 18:16 45.05465 7.92905 7313 ft 157 kts 149°
2026-04-27 18:16 45.04533 7.93701 7356 ft 157 kts 149°
2026-04-27 18:16 45.03592 7.94504 7369 ft 159 kts 149°
2026-04-27 18:17 45.02636 7.95319 7367 ft 161 kts 149°
2026-04-27 18:17 45.01668 7.96141 7351 ft 164 kts 149°
2026-04-27 18:17 45.00686 7.96972 7326 ft 165 kts 149°
2026-04-27 18:17 44.99692 7.97810 7270 ft 168 kts 149°
2026-04-27 18:18 44.98680 7.98662 7198 ft 170 kts 149°
2026-04-27 18:18 44.97661 7.99525 7143 ft 171 kts 149°
2026-04-27 18:18 44.96660 8.00398 7069 ft 172 kts 148°
2026-04-27 18:18 44.95631 8.01311 6996 ft 173 kts 148°
2026-04-27 18:19 44.94630 8.02207 6960 ft 171 kts 148°
2026-04-27 18:19 44.93632 8.03107 6921 ft 170 kts 148°
2026-04-27 18:19 44.92642 8.03997 6902 ft 168 kts 148°
2026-04-27 18:19 44.91663 8.04880 6884 ft 167 kts 148°
2026-04-27 18:20 44.90755 8.05704 6953 ft 161 kts 148°
2026-04-27 18:20 44.89815 8.06560 6993 ft 162 kts 148°
2026-04-27 18:20 44.88900 8.07393 6991 ft 164 kts 148°
2026-04-27 18:20 44.87928 8.08251 6994 ft 165 kts 149°
2026-04-27 18:21 44.86945 8.09098 6989 ft 166 kts 149°
2026-04-27 18:21 44.85963 8.09946 6992 ft 166 kts 149°
2026-04-27 18:21 44.84975 8.10795 6991 ft 166 kts 149°
2026-04-27 18:21 44.83985 8.11645 6993 ft 167 kts 149°
2026-04-27 18:22 44.82995 8.12495 6988 ft 167 kts 149°
2026-04-27 18:22 44.82006 8.13342 6995 ft 167 kts 149°
2026-04-27 18:22 44.81012 8.14193 6992 ft 167 kts 149°
2026-04-27 18:22 44.80020 8.15043 6997 ft 167 kts 149°
2026-04-27 18:23 44.79029 8.15893 6997 ft 167 kts 149°
2026-04-27 18:23 44.78048 8.16732 6994 ft 167 kts 149°
2026-04-27 18:23 44.77056 8.17581 7000 ft 167 kts 149°
2026-04-27 18:23 44.76064 8.18426 6998 ft 167 kts 149°
2026-04-27 18:24 44.75059 8.19284 6998 ft 167 kts 149°
2026-04-27 18:24 44.74078 8.20124 7001 ft 167 kts 149°
2026-04-27 18:24 44.73132 8.20933 7000 ft 167 kts 149°
2026-04-27 18:24 44.72148 8.21775 7001 ft 167 kts 149°
2026-04-27 18:25 44.71151 8.22628 7003 ft 167 kts 149°
2026-04-27 18:25 44.70149 8.23486 7004 ft 167 kts 149°
2026-04-27 18:25 44.69182 8.24313 7007 ft 167 kts 149°
2026-04-27 18:25 44.68189 8.25161 7004 ft 167 kts 149°
2026-04-27 18:26 44.67194 8.26010 7008 ft 167 kts 149°
2026-04-27 18:26 44.66203 8.26854 7009 ft 166 kts 149°
2026-04-27 18:26 44.65214 8.27696 7013 ft 166 kts 149°
2026-04-27 18:26 44.64228 8.28534 7013 ft 166 kts 149°
2026-04-27 18:27 44.63236 8.29375 7010 ft 166 kts 149°
2026-04-27 18:27 44.62241 8.30216 7012 ft 166 kts 149°
2026-04-27 18:27 44.61309 8.31005 7012 ft 166 kts 149°
2026-04-27 18:27 44.60317 8.31846 7014 ft 166 kts 149°
2026-04-27 18:28 44.59325 8.32683 7017 ft 166 kts 149°
2026-04-27 18:28 44.58434 8.33437 7016 ft 166 kts 149°
2026-04-27 18:28 44.57445 8.34273 7022 ft 166 kts 149°
2026-04-27 18:28 44.56457 8.35109 7019 ft 166 kts 149°
2026-04-27 18:29 44.55467 8.35946 7022 ft 166 kts 149°
2026-04-27 18:29 44.54477 8.36780 7025 ft 166 kts 149°
2026-04-27 18:29 44.53487 8.37614 7023 ft 166 kts 149°
2026-04-27 18:29 44.52512 8.38437 7025 ft 166 kts 149°
2026-04-27 18:30 44.51525 8.39272 7028 ft 166 kts 149°
2026-04-27 18:30 44.50541 8.40106 7029 ft 166 kts 149°
2026-04-27 18:30 44.49555 8.40944 7030 ft 166 kts 149°
2026-04-27 18:30 44.48570 8.41782 7035 ft 166 kts 149°
2026-04-27 18:31 44.47584 8.42620 7031 ft 166 kts 149°
2026-04-27 18:31 44.46600 8.43458 7037 ft 166 kts 149°
2026-04-27 18:31 44.45614 8.44297 7037 ft 166 kts 149°
2026-04-27 18:31 44.44628 8.45134 7038 ft 166 kts 149°
2026-04-27 18:32 44.43642 8.45969 7036 ft 166 kts 149°
2026-04-27 18:32 44.42655 8.46802 7042 ft 166 kts 149°
2026-04-27 18:32 44.41670 8.47633 7037 ft 165 kts 149°
2026-04-27 18:32 44.40685 8.48464 7046 ft 165 kts 149°
2026-04-27 18:33 44.39705 8.49304 7044 ft 165 kts 147°
2026-04-27 18:33 44.38924 8.50464 7037 ft 166 kts 119°
2026-04-27 18:33 44.38432 8.51919 7040 ft 166 kts 114°
2026-04-27 18:33 44.37977 8.53398 7040 ft 165 kts 113°
2026-04-27 18:34 44.37531 8.54864 7040 ft 165 kts 113°
2026-04-27 18:34 44.37077 8.56356 6859 ft 175 kts 113°
2026-04-27 18:34 44.36591 8.57960 6617 ft 183 kts 113°
2026-04-27 18:34 44.36090 8.59616 6369 ft 186 kts 114°
2026-04-27 18:35 44.35588 8.61296 6118 ft 188 kts 113°
2026-04-27 18:35 44.35096 8.62966 5871 ft 188 kts 113°
2026-04-27 18:35 44.34603 8.64663 5625 ft 188 kts 113°
2026-04-27 18:35 44.34115 8.66365 5374 ft 189 kts 113°
2026-04-27 18:36 44.33749 8.68123 5126 ft 190 kts 98°
2026-04-27 18:36 44.33665 8.69970 4881 ft 190 kts 94°
2026-04-27 18:36 44.33626 8.71819 4629 ft 190 kts 93°
2026-04-27 18:36 44.33593 8.73665 4376 ft 190 kts 93°
2026-04-27 18:37 44.33560 8.75500 4129 ft 189 kts 93°
2026-04-27 18:37 44.33529 8.77336 3879 ft 188 kts 93°
2026-04-27 18:37 44.33499 8.79152 3635 ft 188 kts 93°
2026-04-27 18:37 44.33472 8.80953 3468 ft 181 kts 93°
2026-04-27 18:38 44.33451 8.82643 3475 ft 169 kts 93°
2026-04-27 18:38 44.33438 8.84241 3516 ft 158 kts 93°
2026-04-27 18:38 44.33432 8.85687 3826 ft 143 kts 93°
2026-04-27 18:38 44.33429 8.87049 4121 ft 138 kts 93°
2026-04-27 18:39 44.33423 8.88382 4422 ft 137 kts 93°
2026-04-27 18:39 44.33413 8.89756 4581 ft 147 kts 93°
2026-04-27 18:39 44.33395 8.91256 4574 ft 159 kts 93°
2026-04-27 18:39 44.33370 8.92815 4573 ft 162 kts 94°
2026-04-27 18:40 44.33346 8.94400 4572 ft 164 kts 93°
2026-04-27 18:40 44.33320 8.95984 4570 ft 161 kts 94°
2026-04-27 18:40 44.33297 8.97534 4570 ft 158 kts 93°
2026-04-27 18:40 44.33276 8.99044 4572 ft 157 kts 93°
2026-04-27 18:41 44.33255 9.00560 4571 ft 156 kts 93°
2026-04-27 18:41 44.33233 9.02069 4572 ft 155 kts 93°
2026-04-27 18:41 44.33209 9.03574 4569 ft 155 kts 93°
2026-04-27 18:41 44.33186 9.05077 4570 ft 155 kts 93°
2026-04-27 18:42 44.33162 9.06581 4572 ft 155 kts 93°
2026-04-27 18:42 44.33155 9.07090 4571 ft 155 kts 93°
2026-04-27 18:42 44.33251 9.09578 4550 ft 158 kts 68°
2026-04-27 18:42 44.33933 9.10774 4564 ft 158 kts 45°
2026-04-27 18:43 44.34734 9.11827 4563 ft 158 kts 43°
2026-04-27 18:43 44.35713 9.12421 4488 ft 160 kts 352°
2026-04-27 18:43 44.36551 9.11569 4462 ft 153 kts 289°
2026-04-27 18:43 44.36607 9.10070 4233 ft 158 kts 265°
2026-04-27 18:44 44.36565 9.08548 3994 ft 157 kts 271°
2026-04-27 18:44 44.36745 9.07049 3680 ft 152 kts 281°
2026-04-27 18:44 44.36995 9.05649 3436 ft 145 kts 282°
2026-04-27 18:44 44.37167 9.04751 3274 ft 143 kts 284°
2026-04-27 18:45 44.37519 9.03040 2930 ft 132 kts 285°
2026-04-27 18:45 44.37789 9.01868 2708 ft 125 kts 285°
2026-04-27 18:45 44.38017 9.00718 2465 ft 120 kts 282°
2026-04-27 18:45 44.38184 8.99644 2310 ft 106 kts 285°
2026-04-27 18:46 44.38401 8.98712 2119 ft 99 kts 283°
2026-04-27 18:46 44.38537 8.98083 2035 ft 101 kts 282°
2026-04-27 18:46 44.38726 8.97115 1874 ft 105 kts 280°
2026-04-27 18:46 44.38872 8.96171 1761 ft 100 kts 282°
2026-04-27 18:47 44.39043 8.95294 1622 ft 93 kts 282°
2026-04-27 18:47 44.39211 8.94433 1454 ft 92 kts 283°
2026-04-27 18:47 44.39378 8.93575 1321 ft 90 kts 281°
2026-04-27 18:47 44.39530 8.92725 1197 ft 90 kts 282°
2026-04-27 18:48 44.39691 8.91867 1051 ft 92 kts 283°
2026-04-27 18:48 44.39863 8.91000 913 ft 92 kts 283°
2026-04-27 18:48 44.40036 8.90134 758 ft 92 kts 283°
2026-04-27 18:48 44.40199 8.89276 623 ft 90 kts 282°
2026-04-27 18:49 44.40359 8.88430 465 ft 91 kts 282°
2026-04-27 18:49 44.40524 8.87596 350 ft 88 kts 284°
2026-04-27 18:49 44.40690 8.86782 244 ft 88 kts 281°
2026-04-27 18:49 44.40846 8.85958 72 ft 85 kts 283°
2026-04-27 18:50 44.40987 8.85222 12 ft 66 kts 285°
2026-04-27 18:50 44.41094 8.84701 14 ft 48 kts 285°
2026-04-27 18:50 44.41170 8.84320 16 ft 20 kts 286°
2026-04-27 18:50 44.41217 8.84228 16 ft 10 kts 48°
2026-04-27 18:51 44.41296 8.84370 14 ft 24 kts 55°
2026-04-27 18:51 44.41343 8.84457 14 ft 7 kts 50°
2026-04-27 18:51 44.41376 8.84517 14 ft 9 kts 52°
2026-04-27 18:51 44.41412 8.84584 14 ft 4 kts 44°
2026-04-27 18:52 44.41442 8.84558 14 ft 8 kts 324°
2026-04-27 18:52 44.41487 8.84511 14 ft 5 kts 321°
2026-04-27 18:52 44.41498 8.84499 14 ft 0 kts 322°